SCP
0 0 0 0 0 0 0 0 0 0 0 0 0 0 0 0 0 0 0 0 0 0 0 0 0 0 0 0 0 0 0 0 0 0 0 0 -0 -0 0 0 0 0 0
0 0 0 0 0 0 0 0 0 0 0 0 0 0 0 0 0 0 0 0 0 0 0 0 0 0 0 0 0 0 0 0 0 0 0 0 -0 -0 -0 0 0 0 0
0 0 0 0 0 0 0 0 0 0 0 0 0 0 0 0 0 0 0 0 0 0 0 0 0 0 0 0 0 0 0 0 0 0 0 0 0 -0 0 0 0 0 0
0 0 0 0 0 0 0 0 0 0 0 0 0 0 0 0 0 0 0 0 0 0 0 0 0 0 0 0 0 0 0 0 0 0 0 0 0 0 0 0 0 0 0
0 0 0 0 0 0 0 0 0 0 0 0 0 0 0 0 0 0 0 0 0 0 0 0 0 0 0 0 0 0 0 0 0 0 0 0 0 0 0 0 0 0 0
0 0 0 0 0 0 0 0 0 0 0 0 0 0 0 0 0 0 0 0 0 0 0 0 0 0 0 0 0 0 0 0 0 0 0 0 0 0 0 0 0 0 0
0 0 0 0 0 0 0 0 0 0 0 0 0 0 0 0 0 0 0 0 0 0 0 0 0 0 0 0 0 0 0 0 0 0 0 0 0 0 0 0 0 0 0
0 0 0 0 0 0 0 0 0 0 0 0 0 0 0 0 0 0 0 0 0 0 0 0 0 0 0 0 0 0 0 0 0 0 0 0 0 0 0 0 0 0 0
0 0 0 0 0 0 0 0 0 0 0 0 0 0 0 0 0 0 0 0 0 0 0 0 0 0 0 0 0 0 0 0 0 0 0 0 0 0 0 0 0 0 0
0 0 0 0 0 0 0 0 0 0 0 0 0 0 0 0 0 0 0 0 0 0 0 0 0 0 0 0 0 0 0 0 0 0 0 0 0 0 0 0 0 0 0
0 0 0 0 0 0 0 0 0 0 0 0 0 0 0 0 0 0 0 0 0 0 0 0 0 0 0 0 0 0 0 0 0 0 0 0 0 0 0 0 0 0 0
0 0 0 0 0 0 0 0 0 0 0 0 0 0 0 0 0 0 0 0 0 0 0 0 0 0 0 0 0 0 0 0 0 0 0 0 0 0 0 0 0 0 0
0 0 0 0 0 0 0 0 0 0 0 0 0 0 0 0 0 0 0 0 0 0 0 0 0 0 0 0 0 0 0 0 0 0 0 0 0 0 0 0 0 0 0
0 0 0 0 0 0 0 0 0 0 0 0 0 0 0 0 0 0 0 0 0 0 0 0 0 0 0 0 0 0 0 0 0 0 0 0 0 0 0 0 0 0 0
0 0 0 0 0 0 0 0 0 0 0 0 0 0 0 0 0 0 0 0 0 0 0 0 0 0 0 0 0 0 0 0 0 0 0 0 0 0 0 0 0 0 0
0 0 0 0 0 0 0 0 0 0 0 0 0 0 0 0 0 0 0 0 0 0 0 0 0 0 0 0 0 0 0 0 0 0 0 0 0 0 0 0 0 0 0
0 0 0 0 0 0 0 0 0 0 0 0 0 0 0 0 0 0 0 0 0 0 0 0 0 0 0 0 0 0 0 0 0 0 0 0 0 0 0 0 0 0 0
0 0 0 0 0 0 0 0 0 0 0 0 0 0 0 0 0 0 0 0 0 0 0 0 0 0 0 0 0 0 0 0 0 0 0 0 0 0 0 0 0 0 0
0 0 0 0 0 0 0 0 0 0 0 0 0 0 0 0 0 0 0 0 0 0 0 0 0 0 0 0 0 0 0 0 0 0 0 0 0 0 0 0 0 0 0
0 0 0 0 0 0 0 0 0 0 0 0 0 0 0 0 0 0 0 0 0 0 0 0 0 0 0 0 0 0 0 0 0 0 0 0 0 0 0 0 0 0 0
0 0 0 0 0 0 0 0 0 0 0 0 0 0 0 0 0 0 0 0 0 0 0 0 0 0 0 0 0 0 0 0 0 0 0 0 0 0 0 0 0 0 0
0 0 0 0 0 0 0 0 0 0 0 0 0 0 0 0 0 0 0 0 0 0 0 0 0 0 0 0 0 0 0 0 0 0 0 0 0 0 0 0 0 0 0
0 0 0 0 0 0 0 0 0 0 0 0 0 0 0 0 0 0 0 0 0 0 0 0 0 0 0 0 0 0 0 0 0 0 0 0 0 0 0 0 0 0 0
0 0 0 0 0 0 0 0 0 0 0 0 0 0 0 0 0 0 0 0 0 0 0 0 0 0 0 0 0 0 0 0 0 0 0 0 0 0 0 0 0 0 0
0 0 0 0 0 0 0 0 0 0 0 0 0 0 0 0 0 0 0 0 0 0 0 0 0 0 0 0 0 0 0 0 0 0 0 0 0 0 0 0 0 0 0
0 0 0 0 0 0 0 0 0 0 0 0 0 0 0 0 0 0 0 0 0 0 0 0 0 0 0 0 0 0 0 0 0 0 0 0 0 0 0 0 0 0 -0
Wind_Speed_500mb
75 75 75 75 75 75 74 76 74 69 63 56 48 42 35 30 26 19 15 11 9 6 5 2 4 11 18 24 29 34 38 43 53 63 66 72 76 78 79 78 81 85 87
78 81 78 77 78 82 84 82 76 68 61 54 48 43 38 32 26 21 15 12 10 8 7 3 4 10 17 22 26 30 35 41 48 58 66 70 74 79 84 90 91 88 87
84 83 81 80 84 89 90 85 79 72 64 58 51 44 37 31 25 22 18 14 14 12 9 5 4 8 14 20 24 29 33 39 45 54 63 68 75 79 84 85 89 91 93
86 84 82 83 88 93 91 86 80 74 67 61 52 44 37 32 27 21 16 18 18 18 14 9 7 8 14 20 24 30 34 39 43 50 59 68 72 75 77 85 95 94 99
90 90 88 87 94 97 93 87 81 75 67 59 54 48 40 33 26 16 20 23 23 21 18 14 12 13 15 20 26 31 35 38 42 50 57 63 66 72 75 82 89 97 101
96 92 90 91 98 97 92 89 83 77 69 61 55 47 42 34 20 21 26 27 26 25 23 20 20 21 21 25 31 34 37 36 41 46 53 58 60 62 71 77 84 93 101
95 94 94 95 98 96 94 90 84 78 71 66 58 50 42 31 24 28 31 29 29 29 28 28 27 29 29 30 36 37 36 37 39 42 51 50 57 59 66 75 78 82 88
97 97 96 97 98 96 92 89 84 79 75 67 59 52 45 37 31 36 35 35 34 34 33 34 35 35 37 38 39 41 44 42 44 49 50 49 51 56 60 65 72 80 86
98 98 96 92 93 95 92 90 87 83 77 70 62 56 48 46 36 42 43 39 38 39 39 40 42 42 45 45 46 50 50 47 49 53 49 46 52 53 55 65 66 74 88
91 93 90 92 94 94 93 92 88 84 79 74 67 60 54 53 40 51 50 43 43 43 44 46 48 49 50 50 52 52 53 53 59 61 57 55 54 55 55 55 59 66 72
74 81 87 89 90 86 82 83 86 84 83 79 67 74 64 56 47 61 53 51 46 47 48 49 52 54 56 56 52 53 53 52 63 62 61 63 63 61 60 58 54 58 65
59 67 70 76 84 87 80 87 86 88 89 89 79 75 72 63 55 62 58 55 52 52 49 51 56 58 59 59 50 47 56 58 62 63 63 65 67 67 66 62 59 58 58
48 43 49 57 65 72 78 90 90 90 90 90 87 83 81 68 62 63 62 58 58 58 54 57 60 60 60 57 51 54 63 62 64 65 66 68 68 67 68 65 63 60 62
46 49 54 58 62 67 74 83 90 99 99 98 93 92 77 67 63 66 64 64 60 61 64 64 61 58 58 62 59 54 57 60 63 66 69 71 71 68 66 61 64 63 66
33 38 43 48 54 60 66 73 83 94 97 96 94 79 71 71 64 64 64 65 61 61 62 66 67 68 66 63 61 62 62 62 67 68 69 71 70 68 65 58 55 57 56
28 33 38 41 45 48 53 57 61 70 79 85 85 83 73 67 65 65 69 67 65 64 66 70 72 68 67 66 65 64 66 68 71 71 68 66 67 67 64 57 50 51 54
24 26 32 36 42 45 49 53 59 62 71 81 88 86 71 67 69 70 71 69 67 63 63 67 68 68 69 71 72 70 73 73 74 70 65 64 64 64 60 56 49 49 51
21 24 28 29 33 37 42 47 53 60 67 77 87 92 81 71 71 72 71 66 57 48 57 62 67 71 74 75 78 79 79 78 76 71 66 62 61 61 59 54 47 48 48
24 25 26 29 32 34 38 43 48 53 62 71 77 78 76 68 66 64 63 60 58 60 62 68 71 74 77 79 79 80 80 79 74 71 65 61 59 58 58 53 49 46 45
27 30 32 34 37 40 43 46 49 53 58 64 70 72 70 67 65 62 59 60 64 66 66 68 70 74 76 77 77 76 76 74 71 69 67 63 60 57 57 54 50 48 46
36 38 40 43 45 47 49 51 53 57 59 60 59 57 58 61 61 60 62 63 61 61 61 63 64 66 69 70 72 72 72 72 70 69 68 63 59 57 54 52 51 47 47
39 41 44 48 49 51 50 49 49 50 50 52 53 53 55 62 58 58 53 51 52 54 55 57 59 59 59 60 60 62 65 67 65 62 62 60 59 56 53 52 49 47 46
42 44 45 45 44 44 45 46 46 46 46 47 48 48 50 51 48 47 46 47 46 46 49 51 51 50 50 52 52 55 58 57 56 55 56 56 55 52 50 51 49 47 45
36 37 38 39 40 40 40 41 42 44 45 46 46 43 42 42 41 42 42 41 43 43 43 45 48 51 50 50 51 52 54 53 52 52 52 53 51 47 48 49 47 45 44
30 32 33 34 34 35 35 36 38 38 37 37 37 36 36 38 38 36 36 39 38 38 38 41 45 47 48 49 50 50 51 51 51 49 49 50 50 49 48 47 45 43 41
22 24 25 26 28 30 31 31 32 32 33 32 33 35 36 36 35 34 35 35 35 36 38 40 43 44 45 46 46 48 48 47 46 44 45 47 47 45 43 43 42 44 44
Wind_Direction_500mb
211 210 209 208 206 204 203 197 195 194 192 191 189 189 187 185 183 183 179 173 169 176 161 125 16 351 348 348 346 344 341 339 334 337 339 339 339 338 337 337 336 337 336
213 212 211 209 208 205 201 198 197 197 195 195 193 191 189 187 186 179 182 188 196 200 197 191 335 345 347 349 346 345 343 339 335 337 340 340 341 342 340 339 339 340 337
216 215 215 213 209 205 201 200 198 198 197 195 195 192 190 188 185 181 188 201 209 213 219 242 301 340 349 348 348 345 341 341 337 333 335 342 343 342 338 336 334 336 337
218 220 220 217 210 205 202 202 201 199 200 198 193 191 189 187 185 187 206 220 219 222 226 240 278 323 341 344 343 341 341 339 333 333 338 341 341 340 334 334 333 335 333
222 221 222 217 209 206 205 204 202 202 200 198 194 190 189 188 186 206 231 227 229 231 235 246 267 291 315 331 334 337 337 332 334 336 336 336 335 333 332 332 330 331 332
220 223 221 215 210 208 206 205 203 202 200 197 196 196 192 190 202 232 232 235 237 237 242 252 265 276 299 313 319 324 327 332 331 326 329 327 326 327 329 328 329 330 329
222 221 219 215 213 210 208 207 206 204 202 201 200 197 195 198 213 234 238 244 245 247 250 258 267 277 289 300 306 312 318 324 323 315 316 319 319 326 324 325 325 323 322
221 220 217 215 214 213 211 210 209 208 208 205 203 201 198 232 217 239 243 248 252 254 256 261 268 275 284 291 297 302 311 316 318 313 314 316 316 320 318 318 319 318 318
221 220 218 217 217 216 214 213 212 211 210 211 210 206 222 242 224 240 245 250 257 261 262 265 269 276 281 290 298 301 305 309 310 306 303 306 312 315 316 314 319 320 322
224 224 223 221 220 219 218 217 217 216 217 215 213 226 234 248 225 242 247 252 260 267 269 270 274 277 282 287 291 294 298 305 303 302 309 311 312 314 315 314 319 320 323
228 227 225 224 224 223 224 227 222 220 219 220 226 229 241 244 230 241 247 255 262 268 271 274 277 279 281 284 287 290 292 297 297 305 306 309 312 313 314 315 319 318 318
225 227 228 227 227 230 229 228 226 227 227 222 229 230 243 244 236 240 248 256 259 266 276 278 276 276 278 281 285 281 279 284 298 299 302 307 309 311 313 315 316 315 314
223 230 230 232 232 230 223 225 227 228 230 232 230 232 248 243 240 243 249 254 260 269 272 274 274 277 279 281 275 275 280 288 295 300 302 303 305 308 310 313 311 314 314
232 233 232 230 229 229 228 229 228 227 227 229 231 236 243 251 245 246 254 255 259 264 270 275 277 276 274 277 281 283 288 294 297 301 300 300 302 305 307 311 312 318 319
228 231 232 233 235 236 237 238 236 235 234 234 234 235 249 256 252 253 257 257 260 264 267 269 271 272 276 279 284 289 292 295 297 299 296 296 298 301 304 307 310 314 320
222 226 230 233 236 236 236 238 237 237 235 234 233 240 256 257 253 252 253 255 259 261 263 268 272 272 276 282 287 291 290 291 293 294 292 293 295 298 301 304 306 310 317
229 233 235 236 236 238 238 238 237 238 232 231 234 240 255 253 251 254 258 260 264 266 267 273 275 279 282 283 285 287 288 290 292 291 290 291 293 294 297 300 303 306 312
231 234 239 243 245 245 245 243 242 242 240 236 239 244 256 260 255 257 262 263 258 250 255 264 268 272 274 277 281 284 286 288 289 289 287 288 289 291 292 295 297 301 308
235 238 240 243 244 245 245 246 246 245 244 244 245 250 256 258 258 262 261 260 261 263 264 266 267 270 273 276 279 281 283 285 285 284 284 285 286 286 287 290 292 294 302
240 244 245 245 246 246 246 245 244 244 244 245 246 247 248 251 253 254 257 260 265 267 269 270 273 275 278 280 282 284 284 285 285 283 284 284 283 282 283 286 288 291 296
251 253 253 253 252 252 250 249 249 248 248 247 248 247 249 251 253 255 258 261 265 269 273 277 280 283 285 286 287 287 287 287 286 284 283 281 280 278 278 280 284 287 292
252 254 254 253 252 253 253 252 251 252 251 250 247 244 241 245 249 255 261 266 270 274 279 283 286 288 290 291 292 292 292 291 289 286 283 281 279 277 277 277 281 285 289
258 258 258 258 258 257 256 254 251 248 246 243 241 240 244 251 255 260 266 269 274 282 285 287 291 293 295 297 297 297 296 296 293 289 285 280 279 278 277 277 279 281 286
258 258 257 256 254 251 248 247 244 242 241 241 242 244 247 252 259 264 268 274 280 283 287 290 293 296 297 296 294 293 293 292 290 288 285 284 283 282 280 277 277 279 284
257 254 251 249 247 246 245 244 243 243 243 244 247 250 254 256 259 263 267 272 278 282 285 289 292 293 295 294 293 292 290 288 288 288 284 283 283 282 280 278 278 276 280
257 253 250 247 245 243 240 237 237 240 244 248 250 253 258 263 263 265 268 273 278 285 288 289 290 292 294 295 295 292 290 289 288 285 283 281 280 280 279 279 278 277 277
Wind_Speed_850mb
75 75 75 75 75 75 74 76 74 69 63 56 48 42 35 30 26 19 15 11 9 6 5 2 4 11 18 24 29 34 38 43 53 63 66 72 76 78 79 78 81 85 87
78 81 78 77 78 82 84 82 76 68 61 54 48 43 38 32 26 21 15 12 10 8 7 3 4 10 17 22 26 30 35 41 48 58 66 70 74 79 84 90 91 88 87
84 83 81 80 84 89 90 85 79 72 64 58 51 44 37 31 25 22 18 14 14 12 9 5 4 8 14 20 24 29 33 39 45 54 63 68 75 79 84 85 89 91 93
86 84 82 83 88 93 91 86 80 74 67 61 52 44 37 32 27 21 16 18 18 18 14 9 7 8 14 20 24 30 34 39 43 50 59 68 72 75 77 85 95 94 99
90 90 88 87 94 97 93 87 81 75 67 59 54 48 40 33 26 16 20 23 23 21 18 14 12 13 15 20 26 31 35 38 42 50 57 63 66 72 75 82 89 97 101
96 92 90 91 98 97 92 89 83 77 69 61 55 47 42 34 20 21 26 27 26 25 23 20 20 21 21 25 31 34 37 36 41 46 53 58 60 62 71 77 84 93 101
95 94 94 95 98 96 94 90 84 78 71 66 58 50 42 31 24 28 31 29 29 29 28 28 27 29 29 30 36 37 36 37 39 42 51 50 57 59 66 75 78 82 88
97 97 96 97 98 96 92 89 84 79 75 67 59 52 45 37 31 36 35 35 34 34 33 34 35 35 37 38 39 41 44 42 44 49 50 49 51 56 60 65 72 80 86
98 98 96 92 93 95 92 90 87 83 77 70 62 56 48 46 36 42 43 39 38 39 39 40 42 42 45 45 46 50 50 47 49 53 49 46 52 53 55 65 66 74 88
91 93 90 92 94 94 93 92 88 84 79 74 67 60 54 53 40 51 50 43 43 43 44 46 48 49 50 50 52 52 53 53 59 61 57 55 54 55 55 55 59 66 72
74 81 87 89 90 86 82 83 86 84 83 79 67 74 64 56 47 61 53 51 46 47 48 49 52 54 56 56 52 53 53 52 63 62 61 63 63 61 60 58 54 58 65
59 67 70 76 84 87 80 87 86 88 89 89 79 75 72 63 55 62 58 55 52 52 49 51 56 58 59 59 50 47 56 58 62 63 63 65 67 67 66 62 59 58 58
48 43 49 57 65 72 78 90 90 90 90 90 87 83 81 68 62 63 62 58 58 58 54 57 60 60 60 57 51 54 63 62 64 65 66 68 68 67 68 65 63 60 62
46 49 54 58 62 67 74 83 90 99 99 98 93 92 77 67 63 66 64 64 60 61 64 64 61 58 58 62 59 54 57 60 63 66 69 71 71 68 66 61 64 63 66
33 38 43 48 54 60 66 73 83 94 97 96 94 79 71 71 64 64 64 65 61 61 62 66 67 68 66 63 61 62 62 62 67 68 69 71 70 68 65 58 55 57 56
28 33 38 41 45 48 53 57 61 70 79 85 85 83 73 67 65 65 69 67 65 64 66 70 72 68 67 66 65 64 66 68 71 71 68 66 67 67 64 57 50 51 54
24 26 32 36 42 45 49 53 59 62 71 81 88 86 71 67 69 70 71 69 67 63 63 67 68 68 69 71 72 70 73 73 74 70 65 64 64 64 60 56 49 49 51
21 24 28 29 33 37 42 47 53 60 67 77 87 92 81 71 71 72 71 66 57 48 57 62 67 71 74 75 78 79 79 78 76 71 66 62 61 61 59 54 47 48 48
24 25 26 29 32 34 38 43 48 53 62 71 77 78 76 68 66 64 63 60 58 60 62 68 71 74 77 79 79 80 80 79 74 71 65 61 59 58 58 53 49 46 45
27 30 32 34 37 40 43 46 49 53 58 64 70 72 70 67 65 62 59 60 64 66 66 68 70 74 76 77 77 76 76 74 71 69 67 63 60 57 57 54 50 48 46
36 38 40 43 45 47 49 51 53 57 59 60 59 57 58 61 61 60 62 63 61 61 61 63 64 66 69 70 72 72 72 72 70 69 68 63 59 57 54 52 51 47 47
39 41 44 48 49 51 50 49 49 50 50 52 53 53 55 62 58 58 53 51 52 54 55 57 59 59 59 60 60 62 65 67 65 62 62 60 59 56 53 52 49 47 46
42 44 45 45 44 44 45 46 46 46 46 47 48 48 50 51 48 47 46 47 46 46 49 51 51 50 50 52 52 55 58 57 56 55 56 56 55 52 50 51 49 47 45
36 37 38 39 40 40 40 41 42 44 45 46 46 43 42 42 41 42 42 41 43 43 43 45 48 51 50 50 51 52 54 53 52 52 52 53 51 47 48 49 47 45 44
30 32 33 34 34 35 35 36 38 38 37 37 37 36 36 38 38 36 36 39 38 38 38 41 45 47 48 49 50 50 51 51 51 49 49 50 50 49 48 47 45 43 41
22 24 25 26 28 30 31 31 32 32 33 32 33 35 36 36 35 34 35 35 35 36 38 40 43 44 45 46 46 48 48 47 46 44 45 47 47 45 43 43 42 44 44
Wind_Direction_850mb
211 210 209 208 206 204 203 197 195 194 192 191 189 189 187 185 183 183 179 173 169 176 161 125 16 351 348 348 346 344 341 339 334 337 339 339 339 338 337 337 336 337 336
213 212 211 209 208 205 201 198 197 197 195 195 193 191 189 187 186 179 182 188 196 200 197 191 335 345 347 349 346 345 343 339 335 337 340 340 341 342 340 339 339 340 337
216 215 215 213 209 205 201 200 198 198 197 195 195 192 190 188 185 181 188 201 209 213 219 242 301 340 349 348 348 345 341 341 337 333 335 342 343 342 338 336 334 336 337
218 220 220 217 210 205 202 202 201 199 200 198 193 191 189 187 185 187 206 220 219 222 226 240 278 323 341 344 343 341 341 339 333 333 338 341 341 340 334 334 333 335 333
222 221 222 217 209 206 205 204 202 202 200 198 194 190 189 188 186 206 231 227 229 231 235 246 267 291 315 331 334 337 337 332 334 336 336 336 335 333 332 332 330 331 332
220 223 221 215 210 208 206 205 203 202 200 197 196 196 192 190 202 232 232 235 237 237 242 252 265 276 299 313 319 324 327 332 331 326 329 327 326 327 329 328 329 330 329
222 221 219 215 213 210 208 207 206 204 202 201 200 197 195 198 213 234 238 244 245 247 250 258 267 277 289 300 306 312 318 324 323 315 316 319 319 326 324 325 325 323 322
221 220 217 215 214 213 211 210 209 208 208 205 203 201 198 232 217 239 243 248 252 254 256 261 268 275 284 291 297 302 311 316 318 313 314 316 316 320 318 318 319 318 318
221 220 218 217 217 216 214 213 212 211 210 211 210 206 222 242 224 240 245 250 257 261 262 265 269 276 281 290 298 301 305 309 310 306 303 306 312 315 316 314 319 320 322
224 224 223 221 220 219 218 217 217 216 217 215 213 226 234 248 225 242 247 252 260 267 269 270 274 277 282 287 291 294 298 305 303 302 309 311 312 314 315 314 319 320 323
228 227 225 224 224 223 224 227 222 220 219 220 226 229 241 244 230 241 247 255 262 268 271 274 277 279 281 284 287 290 292 297 297 305 306 309 312 313 314 315 319 318 318
225 227 228 227 227 230 229 228 226 227 227 222 229 230 243 244 236 240 248 256 259 266 276 278 276 276 278 281 285 281 279 284 298 299 302 307 309 311 313 315 316 315 314
223 230 230 232 232 230 223 225 227 228 230 232 230 232 248 243 240 243 249 254 260 269 272 274 274 277 279 281 275 275 280 288 295 300 302 303 305 308 310 313 311 314 314
232 233 232 230 229 229 228 229 228 227 227 229 231 236 243 251 245 246 254 255 259 264 270 275 277 276 274 277 281 283 288 294 297 301 300 300 302 305 307 311 312 318 319
228 231 232 233 235 236 237 238 236 235 234 234 234 235 249 256 252 253 257 257 260 264 267 269 271 272 276 279 284 289 292 295 297 299 296 296 298 301 304 307 310 314 320
222 226 230 233 236 236 236 238 237 237 235 234 233 240 256 257 253 252 253 255 259 261 263 268 272 272 276 282 287 291 290 291 293 294 292 293 295 298 301 304 306 310 317
229 233 235 236 236 238 238 238 237 238 232 231 234 240 255 253 251 254 258 260 264 266 267 273 275 279 282 283 285 287 288 290 292 291 290 291 293 294 297 300 303 306 312
231 234 239 243 245 245 245 243 242 242 240 236 239 244 256 260 255 257 262 263 258 250 255 264 268 272 274 277 281 284 286 288 289 289 287 288 289 291 292 295 297 301 308
235 238 240 243 244 245 245 246 246 245 244 244 245 250 256 258 258 262 261 260 261 263 264 266 267 270 273 276 279 281 283 285 285 284 284 285 286 286 287 290 292 294 302
240 244 245 245 246 246 246 245 244 244 244 245 246 247 248 251 253 254 257 260 265 267 269 270 273 275 278 280 282 284 284 285 285 283 284 284 283 282 283 286 288 291 296
251 253 253 253 252 252 250 249 249 248 248 247 248 247 249 251 253 255 258 261 265 269 273 277 280 283 285 286 287 287 287 287 286 284 283 281 280 278 278 280 284 287 292
252 254 254 253 252 253 253 252 251 252 251 250 247 244 241 245 249 255 261 266 270 274 279 283 286 288 290 291 292 292 292 291 289 286 283 281 279 277 277 277 281 285 289
258 258 258 258 258 257 256 254 251 248 246 243 241 240 244 251 255 260 266 269 274 282 285 287 291 293 295 297 297 297 296 296 293 289 285 280 279 278 277 277 279 281 286
258 258 257 256 254 251 248 247 244 242 241 241 242 244 247 252 259 264 268 274 280 283 287 290 293 296 297 296 294 293 293 292 290 288 285 284 283 282 280 277 277 279 284
257 254 251 249 247 246 245 244 243 243 243 244 247 250 254 256 259 263 267 272 278 282 285 289 292 293 295 294 293 292 290 288 288 288 284 283 283 282 280 278 278 276 280
257 253 250 247 245 243 240 237 237 240 244 248 250 253 258 263 263 265 268 273 278 285 288 289 290 292 294 295 295 292 290 289 288 285 283 281 280 280 279 279 278 277 277